Date,TemperatureHighF,TemperatureAvgF,TemperatureLowF,DewpointHighF,DewpointAvgF,DewpointLowF,HumidityHigh,HumidityAvg,HumidityLow,PressureMaxIn,PressureMinIn,WindSpeedMaxMPH,WindSpeedAvgMPH,GustSpeedMaxMPH,PrecipitationSumIn
2013-1-1,39,36,26,30,24,10,72,63,53,29.91,29.74,17,12,0,0.00
2013-1-2,30,26,21,18,14,8,66,59,47,30.06,29.89,15,11,0,0.00
2013-1-3,28,23,18,18,13,5,82,65,54,30.11,29.98,17,9,0,0.00
2013-1-4,37,31,24,26,22,17,80,70,59,29.99,29.84,17,10,0,0.00
2013-1-5,42,33,27,27,24,21,84,68,50,30.21,29.87,17,9,0,0.00
2013-1-6,43,35,29,37,31,25,93,85,72,30.15,29.91,15,7,0,0.00
2013-1-7,42,35,24,32,27,20,88,75,55,30.35,29.94,14,7,0,0.00
2013-1-8,46,40,24,38,34,21,92,80,69,30.37,30.27,17,10,0,0.00
2013-1-9,47,39,28,42,35,26,94,85,69,30.32,30.03,19,7,0,0.00
2013-1-10,46,42,35,36,28,25,77,58,45,30.46,30.08,21,11,0,0.00
2013-1-11,44,38,27,43,34,23,96,85,74,30.46,30.09,11,5,0,0.00
2013-1-12,45,43,42,44,42,41,97,96,96,30.10,30.00,12,6,0,0.00
2013-1-13,50,44,42,49,43,41,97,96,95,30.10,29.97,8,4,0,0.00
2013-1-14,55,48,39,54,44,31,96,87,58,30.19,29.91,14,8,0,0.00
2013-1-15,38,37,34,34,32,29,94,83,74,30.25,30.14,11,5,0,0.00
2013-1-16,41,37,35,40,35,31,96,94,82,30.15,29.70,12,6,0,0.00
2013-1-17,41,37,32,35,32,24,95,83,67,30.02,29.83,12,6,0,0.00
2013-1-18,32,26,19,25,13,5,91,58,40,30.44,29.94,14,8,0,0.00
2013-1-19,46,40,21,40,32,12,82,72,62,30.37,29.92,27,17,0,0.00
2013-1-20,50,44,32,41,33,16,85,67,35,29.92,29.61,19,16,0,0.00
2013-1-21,31,28,24,27,18,9,94,67,45,30.04,29.74,13,6,0,0.00
2013-1-22,26,20,14,24,9,-2,93,63,47,30.05,29.72,21,13,0,0.00
2013-1-23,18,14,10,3,0,-2,63,54,46,30.14,30.04,16,11,0,0.00
2013-1-24,20,14,6,3,1,-1,73,55,40,30.23,30.05,20,12,0,0.00
2013-1-25,22,18,13,18,7,1,90,63,52,30.30,29.97,19,9,0,0.00
2013-1-26,24,20,15,19,11,4,91,68,49,30.23,29.93,16,10,0,0.00
2013-1-27,31,22,17,12,9,5,72,56,36,30.43,30.23,16,9,0,0.00
2013-1-28,37,28,15,35,22,8,95,81,52,30.41,29.94,11,4,0,0.00
2013-1-29,40,35,30,38,33,29,96,93,83,30.14,29.93,6,3,0,0.00
2013-1-30,52,48,40,51,46,39,96,96,94,30.07,29.44,17,10,0,0.00
2013-1-31,51,42,30,50,27,16,96,57,41,29.63,29.07,28,19,0,0.00
2013-2-1,32,28,24,17,13,7,64,52,45,30.09,29.63,24,14,0,0.00
2013-2-2,30,25,18,22,14,7,89,62,49,30.22,30.00,15,10,0,0.00
2013-2-3,31,26,22,23,20,16,91,77,62,30.00,29.69,9,5,0,0.00
2013-2-4,31,26,21,22,15,11,86,63,47,29.90,29.69,20,11,0,0.00
2013-2-5,31,28,25,29,23,12,94,84,56,29.92,29.83,9,6,0,0.00
2013-2-6,38,32,26,30,24,6,94,76,38,30.26,29.83,16,8,0,0.00
2013-2-7,31,27,23,22,12,2,71,52,34,30.44,30.26,13,7,0,0.00
2013-2-8,36,33,27,35,30,21,96,90,70,30.33,29.37,25,17,0,0.00
2013-2-9,27,23,20,26,14,8,96,67,57,30.17,29.41,24,16,0,0.00
2013-2-10,31,22,16,18,12,6,81,64,50,30.38,30.16,13,7,0,0.00
2013-2-11,45,38,20,44,37,16,97,94,83,30.29,29.58,18,7,0,0.00
2013-2-12,43,38,31,39,31,25,97,77,59,29.86,29.58,22,12,0,0.00
2013-2-13,39,33,24,30,26,22,92,76,57,29.85,29.58,8,4,0,0.00
2013-2-14,42,35,30,33,29,24,95,81,51,29.95,29.61,11,6,0,0.00
2013-2-15,45,40,35,41,37,33,96,91,82,29.97,29.86,14,8,0,0.00
2013-2-16,39,34,30,38,32,28,96,91,80,29.86,29.59,12,8,0,0.00
2013-2-17,30,24,18,28,14,5,94,67,43,29.72,29.43,27,19,0,0.00
2013-2-18,30,23,17,15,10,5,63,57,49,30.15,29.72,27,18,0,0.00
2013-2-19,45,38,24,44,33,13,96,83,54,30.15,29.55,14,7,0,0.00
2013-2-20,41,32,25,40,20,12,95,64,50,29.82,29.56,23,17,0,0.00
2013-2-21,34,27,23,18,16,13,72,62,51,30.14,29.78,25,16,0,0.00
2013-2-22,36,32,26,29,24,18,78,73,65,30.30,30.14,14,7,0,0.00
2013-2-23,40,37,32,36,34,27,96,88,78,30.24,29.71,13,9,0,0.00
2013-2-24,39,36,31,38,35,29,96,95,94,29.83,29.59,15,11,0,0.00
2013-2-25,42,34,30,32,30,27,94,83,66,30.16,29.82,10,5,0,0.00
2013-2-26,41,36,32,36,33,30,94,87,71,30.25,29.96,14,6,0,0.00
2013-2-27,44,41,37,43,40,35,97,96,93,29.96,29.46,24,13,0,0.00
2013-2-28,42,38,32,40,36,31,96,95,90,29.56,29.47,11,3,0,0.00
2013-3-1,45,39,34,37,33,29,96,80,59,29.64,29.47,14,8,0,0.00
2013-3-2,39,36,32,31,28,26,83,74,66,29.66,29.58,12,8,0,0.00
2013-3-3,37,32,30,28,25,23,83,74,61,29.61,29.54,15,10,0,0.00
2013-3-4,41,33,28,27,23,21,83,67,53,29.72,29.58,21,16,0,0.00
2013-3-5,45,36,30,34,27,22,92,71,55,29.97,29.72,16,8,0,0.00
2013-3-6,41,37,34,36,34,31,93,88,78,29.95,29.77,23,16,0,0.00
2013-3-7,41,35,31,33,31,29,100,84,73,29.91,29.73,23,18,0,0.00
2013-3-8,38,32,30,34,30,29,95,92,69,30.01,29.83,15,10,0,0.00
2013-3-9,49,39,33,35,28,23,86,66,40,30.26,30.01,13,9,0,0.00
2013-3-10,40,36,33,34,32,30,92,86,77,30.33,30.25,9,6,0,0.00
2013-3-11,44,39,29,42,37,27,95,92,88,30.27,30.10,9,4,0,0.00
2013-3-12,49,45,40,48,44,39,97,95,92,30.10,29.67,20,10,0,0.00
2013-3-13,49,43,37,46,32,27,97,69,46,29.76,29.69,17,11,0,0.00
2013-3-14,39,33,30,31,20,15,83,59,45,29.82,29.72,22,15,0,0.00
2013-3-15,42,34,28,31,20,11,72,56,46,29.86,29.65,19,14,0,0.00
2013-3-16,38,34,31,29,23,15,89,65,40,29.81,29.66,15,7,0,0.00
2013-3-17,37,32,29,28,17,8,89,55,33,30.23,29.81,17,9,0,0.00
2013-3-18,35,31,26,31,18,10,86,59,45,30.37,30.04,18,10,0,0.00
2013-3-19,40,36,33,39,35,30,96,95,88,30.04,29.51,19,13,0,0.00
2013-3-20,41,35,29,32,25,21,90,68,46,29.77,29.64,23,12,0,0.00
2013-3-21,37,33,29,31,26,24,91,76,61,29.75,29.52,13,7,0,0.00
2013-3-22,41,34,27,27,21,15,91,60,45,29.74,29.58,19,13,0,0.00
2013-3-23,46,38,32,27,24,20,72,58,40,29.80,29.64,23,14,0,0.00
2013-3-24,45,38,31,32,25,20,79,61,45,29.83,29.65,15,8,0,0.00
2013-3-25,41,37,33,33,31,26,93,79,63,29.69,29.35,18,10,0,0.00
2013-3-26,49,39,30,35,31,24,93,73,49,29.75,29.42,13,6,0,0.00
2013-3-27,53,42,28,33,28,23,84,60,37,29.83,29.73,18,9,0,0.00
2013-3-28,48,41,36,36,33,29,82,71,58,29.98,29.81,12,7,0,0.00
2013-3-29,56,46,38,37,34,30,78,65,38,30.01,29.95,15,8,0,0.00
2013-3-30,55,45,37,37,32,26,80,62,33,30.06,29.98,13,9,0,0.00
2013-3-31,47,41,30,44,36,-100,95,86,73,30.07,29.58,15,6,0,0.00
2013-4-1,50,44,37,45,41,25,96,89,63,29.77,29.54,18,12,0,0.00
2013-4-2,41,36,27,25,19,15,76,50,35,29.97,29.77,22,13,0,0.00
2013-4-3,44,37,31,20,17,13,56,43,33,30.16,29.96,21,16,0,0.00
2013-4-4,43,37,30,34,25,15,82,61,43,30.30,30.06,17,11,0,0.00
2013-4-5,54,43,39,44,36,24,95,79,42,30.06,29.61,15,7,0,0.00
2013-4-6,47,39,35,30,21,10,77,50,23,30.27,29.83,16,10,0,0.00
2013-4-7,48,41,28,42,37,25,94,85,74,30.26,29.98,13,8,0,0.00
2013-4-8,56,49,43,48,44,41,95,84,69,30.03,29.92,13,6,0,0.00
2013-4-9,78,56,45,52,45,42,96,73,31,30.00,29.83,21,9,0,0.00
2013-4-10,64,49,44,51,44,41,95,85,63,29.98,29.76,18,7,0,0.00
2013-4-11,56,46,43,51,44,38,96,90,82,30.02,29.73,14,7,0,0.00
2013-4-12,43,41,38,40,38,34,96,89,74,30.03,29.64,22,14,0,0.00
2013-4-13,53,44,38,42,39,36,96,85,60,29.90,29.63,13,8,0,0.00
2013-4-14,56,48,41,45,37,28,93,67,38,30.15,29.89,21,10,0,0.00
2013-4-15,48,44,40,41,35,28,94,73,56,30.35,30.15,8,4,0,0.00
2013-4-16,52,47,40,47,44,39,95,90,81,30.35,30.10,13,7,0,0.00
2013-4-17,66,52,44,51,44,40,96,75,39,30.25,30.06,13,7,0,0.00
2013-4-18,53,47,39,45,41,36,92,82,62,30.33,30.08,12,6,0,0.00
2013-4-19,56,52,48,51,48,46,93,86,78,30.09,29.67,19,10,0,0.00
2013-4-20,56,50,44,48,41,33,78,72,49,30.14,29.61,20,10,0,0.00
2013-4-21,51,42,36,34,27,21,72,55,35,30.60,30.14,16,9,0,0.00
2013-4-22,48,43,37,38,34,29,78,72,58,30.61,30.46,18,11,0,0.00
2013-4-23,46,42,40,39,36,33,78,76,75,30.46,29.95,16,13,0,0.00
2013-4-24,59,47,43,48,39,36,76,74,66,29.96,29.86,18,13,0,0.00
2013-4-25,62,51,43,43,38,31,73,62,32,30.21,29.84,14,9,0,0.00
2013-4-26,55,48,40,44,38,32,74,69,55,30.33,30.21,9,4,0,0.00
2013-4-27,55,46,40,45,37,31,72,70,68,30.35,30.27,9,5,0,0.00
2013-4-28,54,47,36,44,36,-100,71,68,65,30.29,30.19,8,4,0,0.00
2013-4-29,54,50,48,43,39,36,67,66,65,30.22,30.16,7,4,0,0.00
2013-4-30,58,50,42,42,38,31,67,62,43,30.29,30.17,11,5,0,0.00
2013-5-1,56,48,41,44,37,31,66,64,62,30.42,30.28,11,5,0,0.00
2013-5-2,58,50,39,45,38,28,65,63,59,30.41,30.30,12,5,0,0.00
2013-5-3,57,50,46,44,37,33,65,62,59,30.40,30.30,15,10,0,0.00
2013-5-4,54,48,43,41,35,30,64,61,58,30.30,30.20,14,8,0,0.00
2013-5-5,53,46,42,39,33,29,62,59,56,30.24,30.18,13,7,0,0.00
2013-5-6,55,47,41,41,31,26,59,55,49,30.22,30.12,10,5,0,0.00
2013-5-7,60,52,44,37,29,24,49,42,31,30.12,30.07,7,4,0,0.00
2013-5-8,57,54,52,24,5,-21,31,15,4,30.09,29.98,14,7,0,0.00
2013-5-9,54,13,-13,54,-70,-100,100,5,1,29.98,29.82,9,4,0,0.00
2013-5-10,-6,-19,-59,-100,-100,-100,0,0,100,29.94,29.86,9,3,0,0.00
2013-5-11,-20,-30,-48,-100,-100,-100,0,0,100,29.90,29.67,16,9,0,0.00
2013-5-12,-15,-16,-20,-100,-100,-100,0,0,100,29.67,29.60,10,4,0,0.00
2013-5-27,53,53,52,46,44,43,81,72,68,30.12,30.09,10,8,0,0.00
2013-5-28,75,58,43,57,51,41,100,82,43,30.18,30.10,13,4,0,0.00
2013-5-29,76,60,55,72,57,52,100,93,69,30.10,29.98,13,9,0,0.00
2013-5-30,84,68,56,62,58,53,93,72,47,30.07,30.01,13,7,0,0.00
2013-5-31,90,72,57,65,59,54,93,69,43,30.07,29.97,16,6,0,0.00
2013-6-1,79,67,56,63,59,54,93,75,56,29.98,29.91,15,10,0,0.00
2013-6-2,78,68,60,63,58,-100,90,74,56,29.92,29.79,16,12,0,0.00
2013-6-3,66,61,57,66,60,56,100,98,90,29.83,29.76,12,8,0,0.00
2013-6-4,80,66,52,64,48,41,100,59,27,30.03,29.77,17,9,0,0.00
2013-6-5,84,64,50,56,50,44,93,64,28,30.16,30.03,7,4,0,0.00
2013-6-6,80,62,50,63,55,48,95,81,49,30.13,30.00,9,3,0,0.00
2013-6-7,66,58,56,66,57,53,100,96,84,30.01,29.61,18,9,0,0.00
2013-6-8,73,63,55,64,60,55,100,90,61,29.98,29.45,17,10,0,0.00
2013-6-9,76,67,59,61,58,55,94,73,52,30.14,29.98,13,6,0,0.00
2013-6-10,69,62,57,61,58,55,97,89,76,30.14,29.85,13,4,0,0.00
2013-6-11,75,66,59,67,62,58,98,90,72,29.85,29.56,16,10,0,0.00
2013-6-12,74,68,62,60,53,50,83,61,48,29.79,29.59,19,12,0,0.00
2013-6-13,63,59,52,57,53,49,94,82,63,29.78,29.44,16,7,0,0.00
2013-6-14,70,60,53,55,52,49,97,77,52,29.76,29.43,16,11,0,0.00
2013-6-15,80,67,60,57,54,46,87,65,32,29.92,29.76,13,9,0,0.00
2013-6-16,73,65,55,63,58,52,94,81,56,29.92,29.73,13,7,0,0.00
2013-6-17,83,68,60,66,62,58,94,81,52,29.88,29.78,13,6,0,0.00
2013-6-18,78,65,58,67,60,56,94,85,68,29.88,29.80,11,4,0,0.00
2013-6-19,76,65,59,60,56,52,93,75,44,30.10,29.80,12,8,0,0.00
2013-6-20,75,65,53,61,56,50,93,73,46,30.23,30.10,13,7,0,0.00
2013-6-22,75,70,64,63,62,61,93,77,63,30.22,30.12,12,8,0,0.00
2013-6-23,76,70,63,67,64,61,97,83,68,30.15,30.05,16,10,0,0.00
2013-6-24,85,74,65,72,67,61,96,82,59,30.06,29.90,14,8,0,0.00
2013-6-25,85,74,65,69,66,61,91,77,59,29.93,29.74,15,7,0,0.00
2013-6-26,85,74,66,71,66,62,93,78,61,29.79,29.71,13,6,0,0.00
2013-6-27,76,69,65,70,66,64,96,90,75,29.78,29.63,10,4,0,0.00
2013-6-28,74,69,67,69,67,66,97,94,84,29.63,29.48,16,9,0,0.00
2013-6-29,75,69,66,72,67,65,100,92,78,29.68,29.45,13,7,0,0.00
2013-6-30,75,69,66,69,67,65,98,92,77,29.90,29.68,10,6,0,0.00
2013-7-1,76,70,67,71,67,66,97,92,79,30.05,29.90,11,6,0,0.00
2013-7-2,75,70,68,70,68,66,95,91,83,30.16,30.04,11,7,0,0.00
2013-7-3,78,72,67,71,69,66,97,90,80,30.21,30.15,13,8,0,0.00
2013-7-4,80,74,69,72,70,68,97,88,74,30.21,30.13,16,10,0,0.00
2013-7-5,82,75,70,72,70,67,94,82,68,30.16,30.06,15,10,0,0.00
2013-7-6,87,77,69,74,70,66,93,79,64,30.07,29.97,13,7,0,0.00
2013-7-7,88,77,69,74,70,66,93,80,63,29.99,29.90,14,8,0,0.00
2013-7-8,83,75,68,70,66,-100,93,79,65,29.98,29.90,13,8,0,0.00
2013-7-9,84,74,68,72,69,65,95,86,66,30.03,29.96,11,5,0,0.00
2013-7-10,82,73,71,72,68,-100,97,87,71,29.99,29.78,12,7,0,0.00
2013-7-11,76,72,68,73,69,66,96,90,84,29.85,29.76,14,7,0,0.00
2013-7-12,78,71,66,69,66,63,95,84,67,30.08,29.85,12,8,0,0.00
2013-7-13,77,70,66,74,69,65,97,95,83,30.25,30.08,9,5,0,0.00
2013-7-14,85,77,71,75,72,68,97,85,69,30.27,30.17,12,6,0,0.00
2013-7-15,94,79,72,75,71,68,95,80,52,30.18,30.06,12,5,0,0.00
2013-7-16,94,82,73,73,70,68,89,68,45,30.09,30.05,8,4,0,0.00
2013-7-17,87,78,70,74,71,68,95,81,57,30.13,30.01,9,4,0,0.00
2013-7-18,93,80,73,75,72,70,96,78,57,30.01,29.90,10,6,0,0.00
2013-7-19,87,80,74,77,74,71,94,82,70,29.92,29.75,16,11,0,0.00
2013-7-20,85,78,73,75,71,-100,93,80,66,29.78,29.66,18,12,0,0.00
2013-7-21,82,75,70,70,66,62,93,74,53,29.92,29.76,10,4,0,0.00
2013-7-22,81,73,70,73,70,68,97,91,75,29.92,29.78,10,5,0,0.00
2013-7-23,82,76,71,78,72,67,98,89,73,29.79,29.52,16,7,0,0.00
2013-7-24,87,77,67,75,69,60,95,78,61,29.84,29.53,10,4,0,0.00
2013-7-25,72,65,61,61,58,54,89,78,64,29.98,29.83,13,10,0,0.00
2013-7-26,73,66,61,65,62,58,93,86,73,30.00,29.87,14,8,0,0.00
2013-7-27,79,73,67,71,68,64,94,84,71,30.03,29.92,10,6,0,0.00
2013-7-28,79,72,69,71,68,66,96,87,74,29.96,29.89,8,3,0,0.00
2013-7-29,83,74,68,74,70,65,97,87,70,30.02,29.90,12,5,0,0.00
2013-7-30,84,72,62,64,58,55,94,65,42,30.08,30.01,12,6,0,0.00
2013-7-31,81,70,60,66,62,57,93,77,50,30.10,30.01,12,5,0,0.00
2013-8-1,81,70,64,69,65,60,95,84,65,30.01,29.83,11,4,0,0.00
2013-8-2,84,73,67,71,66,63,97,81,49,29.86,29.73,15,7,0,0.00
2013-8-3,76,71,67,68,65,61,91,81,68,29.85,29.79,12,7,0,0.00
2013-8-4,83,72,62,66,59,55,95,66,41,29.85,29.75,11,6,0,0.00
2013-8-5,79,69,59,56,52,46,84,58,33,29.99,29.85,12,7,0,0.00
2013-8-6,77,68,57,66,59,53,94,75,50,30.10,29.99,9,4,0,0.00
2013-8-7,78,68,57,65,61,55,97,80,59,30.13,30.07,9,4,0,0.00
2013-8-8,78,73,69,70,67,63,93,83,73,30.08,30.01,14,9,0,0.00
2013-8-9,76,72,70,73,70,68,94,92,86,30.02,29.77,15,10,0,0.00
2013-8-10,84,76,68,71,65,58,95,72,46,29.99,29.77,13,7,0,0.00
2013-8-11,79,70,62,63,56,48,85,62,36,30.04,29.98,9,6,0,0.00
2013-8-12,77,70,65,69,66,63,95,86,73,30.01,29.89,6,2,0,0.00
2013-8-13,73,67,64,70,65,-100,100,94,85,29.90,29.64,11,2,0,0.00
2013-8-14,76,67,63,66,52,-100,98,66,45,29.94,29.66,15,8,0,0.00
2013-8-15,77,59,58,58,39,-100,82,61,37,30.09,29.94,15,7,0,0.00
2013-8-16,79,67,61,65,57,-100,92,75,49,30.16,30.07,10,5,0,0.00
2013-8-17,81,66,57,64,60,56,97,81,52,30.24,30.16,7,2,0,0.00
2013-8-18,76,65,57,65,58,-100,96,81,60,30.23,30.07,6,3,0,0.00
2013-8-19,81,63,57,67,49,-100,94,82,62,30.07,29.96,10,5,0,0.00
2013-8-20,86,69,63,66,61,-100,93,79,44,30.09,29.98,13,6,0,0.00
2013-8-21,84,72,63,72,66,62,96,82,54,30.12,30.01,10,5,0,0.00
2013-8-22,79,72,69,72,69,67,95,91,79,30.02,29.81,12,7,0,0.00
2013-8-23,83,72,63,69,64,59,98,79,45,30.04,29.79,12,5,0,0.00
2013-8-24,78,67,53,62,56,50,92,69,44,30.30,30.04,11,5,0,0.00
2013-8-25,79,64,52,65,56,-100,94,78,50,30.30,30.19,12,6,0,0.00
2013-8-26,76,70,67,68,63,59,95,79,67,30.19,29.88,17,10,0,0.00
2013-8-27,80,70,67,70,68,66,98,94,72,29.88,29.76,10,6,0,0.00
2013-8-28,78,74,68,70,68,67,96,85,72,29.86,29.83,8,4,0,0.00
2013-8-29,77,68,64,68,64,58,98,87,68,29.99,29.85,10,7,0,0.00
2013-8-30,75,68,61,67,62,57,94,83,72,29.98,29.83,13,6,0,0.00
2013-8-31,77,72,68,70,68,67,95,88,78,29.84,29.79,15,10,0,0.00
2013-9-1,79,72,69,72,67,-100,96,88,77,29.84,29.80,12,6,0,0.00
2013-9-2,76,72,70,74,70,69,98,96,91,29.83,29.68,7,4,0,0.00
2013-9-3,77,69,64,75,68,63,99,97,79,29.81,29.67,18,4,0,0.00
2013-9-4,79,70,58,65,60,56,95,73,49,29.92,29.80,14,7,0,0.00
2013-9-5,78,68,61,64,56,45,93,68,43,30.08,29.86,13,6,0,0.00
2013-9-6,71,61,50,54,47,42,90,62,37,30.18,30.07,11,5,0,0.00
2013-9-7,74,63,50,57,52,47,90,69,42,30.09,29.86,15,8,0,0.00
2013-9-8,80,69,61,63,54,-100,87,62,44,30.03,29.75,14,8,0,0.00
2013-9-9,70,63,53,53,48,41,72,58,42,30.19,30.03,10,6,0,0.00
2013-9-10,75,69,64,67,63,53,94,82,67,30.14,30.01,16,10,0,0.00
2013-9-11,81,73,67,71,68,65,95,86,70,30.07,29.98,14,9,0,0.00
2013-9-12,78,72,68,71,68,66,97,88,76,29.98,29.66,14,9,0,0.00
2013-9-13,80,70,62,71,65,55,99,86,62,29.72,29.56,13,5,0,0.00
2013-9-14,72,62,55,55,52,48,83,69,52,30.04,29.72,12,7,0,0.00
2013-9-15,68,56,49,53,48,-100,94,77,57,30.14,30.04,12,5,0,0.00
2013-9-16,72,62,56,61,54,45,95,76,55,30.15,29.99,14,5,0,0.00
2013-9-17,65,54,43,46,40,37,91,60,40,30.35,30.15,16,8,0,0.00
2013-9-18,55,43,41,51,41,39,95,93,86,30.29,30.26,3,2,0,0.00
2013-9-19,72,60,47,57,52,46,96,78,54,30.14,30.03,13,7,0,0.00
2013-9-20,75,62,50,63,57,49,98,86,61,30.04,29.98,10,5,0,0.00
2013-9-21,75,68,57,66,63,55,95,85,72,29.99,29.69,14,6,0,0.00
2013-9-22,74,65,56,67,56,-100,98,76,51,29.81,29.60,17,8,0,0.00
2013-9-23,65,57,49,47,44,42,78,63,49,29.96,29.81,12,8,0,0.00
2013-9-24,70,58,46,51,45,39,80,62,47,29.96,29.78,15,8,0,0.00
2013-9-25,73,60,46,55,49,44,94,70,39,29.90,29.83,10,4,0,0.00
2013-9-26,68,60,49,57,51,46,94,73,53,30.06,29.89,9,4,0,0.00
2013-9-27,68,59,48,53,51,47,96,76,58,30.20,30.05,8,4,0,0.00
2013-9-28,73,59,49,57,53,47,95,81,52,30.26,30.19,8,4,0,0.00
2013-9-29,68,56,49,55,49,-100,96,80,58,30.20,30.03,10,4,0,0.00
2013-9-30,71,60,54,57,55,52,94,84,52,30.03,29.93,7,5,0,0.00
2013-10-1,61,60,53,58,56,52,95,87,84,29.93,29.86,5,4,0,0.00
2013-10-2,81,66,57,65,58,54,94,79,51,29.93,29.84,12,5,0,0.00
2013-10-3,78,66,58,61,54,46,92,68,33,30.04,29.93,9,6,0,0.00
2013-10-4,77,65,55,66,60,52,95,84,68,30.03,29.95,10,4,0,0.00
2013-10-5,71,64,59,61,60,57,95,87,68,30.06,29.98,8,4,0,0.00
2013-10-6,65,62,60,62,60,58,97,92,83,30.11,30.03,11,6,0,0.00
2013-10-7,75,68,63,69,65,58,99,89,74,30.03,29.82,16,8,0,0.00
2013-10-8,68,62,56,58,46,42,83,58,42,30.27,29.86,12,8,0,0.00
2013-10-9,66,58,55,49,47,44,75,66,52,30.35,30.25,13,9,0,0.00
2013-10-10,65,60,55,58,54,47,86,80,73,30.25,30.04,13,10,0,0.00
2013-10-11,67,62,59,59,56,47,89,81,69,30.05,29.98,13,10,0,0.00
2013-10-12,70,59,55,56,51,45,86,74,58,30.26,30.03,16,10,0,0.00
2013-10-13,64,54,51,51,46,-100,87,78,59,30.34,30.24,12,8,0,0.00
2013-10-14,60,48,43,52,44,42,95,89,66,30.33,30.21,5,3,0,0.00
2013-10-15,63,50,43,54,46,42,98,90,55,30.21,30.09,8,4,0,0.00
2013-10-16,68,59,55,57,54,48,95,84,68,30.09,29.87,10,4,0,0.00
2013-10-17,72,62,58,64,59,56,95,90,67,29.87,29.70,11,6,0,0.00
2013-10-18,69,62,57,62,57,45,98,85,42,29.81,29.61,17,10,0,0.00
2013-10-19,68,59,43,56,50,42,97,73,47,29.93,29.71,10,5,0,0.00
2013-10-20,63,55,51,58,46,-100,95,77,37,29.89,29.67,12,8,0,0.00
2013-10-21,66,56,42,50,45,41,96,66,45,30.08,29.96,12,9,0,0.00
2013-10-22,69,58,51,54,51,45,91,76,57,29.96,29.67,13,7,0,0.00
2013-10-23,58,48,42,46,38,32,97,71,44,29.75,29.54,9,5,0,0.00
2013-10-24,58,46,39,41,34,28,90,65,31,29.86,29.64,15,8,0,0.00
2013-10-25,56,48,40,34,30,27,71,51,34,30.14,29.88,14,9,0,0.00
2013-10-26,59,53,36,41,38,33,93,57,39,30.12,29.86,23,17,0,0.00
2013-10-27,59,48,43,42,32,-100,88,58,36,29.91,29.78,13,8,0,0.00
2013-10-28,63,46,31,41,31,-100,93,66,35,30.26,30.05,8,5,0,0.00
2013-10-29,53,44,34,37,33,31,88,65,43,30.35,30.25,10,6,0,0.00
2013-10-30,63,48,33,51,42,31,93,82,54,30.30,30.14,8,3,0,0.00
2013-10-31,68,57,44,60,54,43,98,90,72,30.18,29.82,14,7,0,0.00
2013-11-1,67,62,58,63,59,56,96,90,80,29.81,29.52,23,14,0,0.00
2013-11-2,66,57,51,58,52,45,98,83,67,29.68,29.56,9,4,0,0.00
2013-11-3,54,47,37,46,35,-100,81,64,49,30.34,29.68,13,8,0,0.00
2013-11-4,49,36,33,29,24,20,72,63,37,30.63,30.34,13,8,0,0.00
2013-11-5,55,40,36,38,33,26,87,75,48,30.63,30.47,5,2,0,0.00
2013-11-6,61,48,36,55,45,34,94,89,70,30.47,30.04,11,4,0,0.00
2013-11-7,63,56,42,63,55,37,100,98,81,30.04,29.66,16,11,0,0.00
2013-11-8,53,43,39,37,29,25,81,59,37,30.09,29.82,17,11,0,0.00
2013-11-9,52,42,34,39,27,-100,73,57,40,30.20,29.98,14,9,0,0.00
2013-11-10,59,50,45,41,37,30,84,60,38,29.99,29.70,22,14,0,0.00
2013-11-11,56,48,39,41,33,27,67,57,41,30.09,29.89,19,14,0,0.00
2013-11-12,53,38,30,39,28,16,97,69,52,30.16,29.84,17,12,0,0.00
2013-11-13,43,30,26,20,16,12,71,58,29,30.26,30.15,12,8,0,0.00
2013-11-14,53,39,30,26,21,17,63,48,32,30.20,30.06,15,12,0,0.00
2013-11-15,59,46,39,45,35,24,96,67,46,30.18,30.12,14,9,0,0.00
2013-11-16,60,46,39,46,38,-100,97,76,52,30.27,30.16,8,4,0,0.00
2013-11-17,65,55,41,58,53,40,100,95,74,30.24,29.81,9,5,0,0.00
2013-11-18,67,56,51,60,49,31,100,81,43,29.80,29.55,20,11,0,0.00
2013-11-19,51,41,32,33,24,20,61,51,32,30.24,29.64,18,14,0,0.00
2013-11-20,44,32,29,21,18,14,64,57,29,30.55,30.24,11,6,0,0.00
2013-11-21,52,38,29,39,30,18,85,72,53,30.55,30.34,5,3,0,0.00
2013-11-22,55,50,47,54,48,41,100,92,74,30.34,29.81,14,6,0,0.00
2013-11-23,51,43,34,51,30,-100,100,65,31,29.88,29.78,21,12,0,0.00
2013-11-24,34,26,23,15,4,-3,49,39,23,30.21,29.80,24,20,0,0.00
2013-11-25,38,26,20,22,12,7,67,57,36,30.37,30.21,17,10,0,0.00
2013-11-26,49,39,33,38,24,20,95,58,40,30.27,30.17,11,7,0,0.00
2013-11-27,59,46,38,59,46,35,100,100,94,29.54,29.17,24,13,0,0.00
2013-11-28,39,33,28,37,18,11,91,55,37,30.41,29.53,22,13,0,0.00
2013-11-29,40,32,28,21,17,11,70,53,42,30.66,30.40,10,4,0,0.00
2013-11-30,41,33,25,29,18,-100,63,54,39,30.71,30.38,9,5,0,0.00
2013-12-1,54,46,40,50,41,29,98,83,63,30.37,29.95,12,6,0,0.00
2013-12-2,48,40,34,45,38,32,100,92,71,29.95,29.82,6,3,0,0.00
2013-12-3,49,42,36,40,36,33,94,81,58,29.92,29.80,10,6,0,0.00
2013-12-4,52,41,32,44,34,29,96,77,52,30.10,29.92,7,2,0,0.00
2013-12-5,56,52,46,54,50,44,98,94,86,30.10,29.90,10,5,0,0.00
2013-12-6,56,48,39,56,46,37,100,95,84,30.04,29.84,14,9,0,0.00
2013-12-7,41,37,32,37,27,-100,95,70,49,30.42,30.00,14,9,0,0.00
2013-12-8,34,32,29,30,21,18,90,63,54,30.53,30.35,10,5,0,0.00
2013-12-9,51,41,32,51,40,30,100,98,92,30.34,29.83,17,10,0,0.00
2013-12-10,38,33,31,36,30,15,100,88,57,30.01,29.75,19,7,0,0.00
2013-12-11,38,31,26,20,16,13,62,53,43,30.24,30.01,17,11,0,0.00
2013-12-12,29,25,18,18,10,3,66,52,36,30.25,30.07,13,8,0,0.00
2013-12-13,35,28,22,20,12,4,69,51,38,30.27,30.01,21,12,0,0.00
2013-12-14,40,27,21,40,20,-100,100,78,52,30.47,29.90,21,12,0,0.00
2013-12-15,53,39,33,53,36,22,100,91,61,29.85,29.32,22,4,0,0.00
2013-12-16,34,29,23,25,14,8,68,52,38,30.15,29.73,4,0,0,0.00
2013-12-17,44,28,17,43,23,10,97,83,57,30.17,29.80,8,2,0,0.00
2013-12-18,36,30,24,24,22,19,87,72,55,30.09,29.78,18,10,0,0.00
2013-12-19,48,38,26,35,26,18,75,62,49,30.10,29.94,19,9,0,0.00
2013-12-20,52,44,33,45,39,29,95,82,64,30.06,29.92,15,8,0,0.00
2013-12-21,56,50,46,52,46,-100,94,86,77,29.96,29.86,15,11,0,0.00
2013-12-22,60,54,50,54,52,48,100,94,77,29.93,29.80,19,14,0,0.00
2013-12-23,58,49,41,54,47,35,99,94,84,30.03,29.83,14,7,0,0.00
2013-12-24,41,36,31,37,22,15,84,59,42,30.17,29.98,13,10,0,0.00
2013-12-25,31,24,20,21,9,4,68,52,41,30.47,30.19,16,8,0,0.00
2013-12-26,45,35,26,39,28,21,90,74,59,30.39,30.04,15,9,0,0.00
2013-12-27,43,34,23,24,22,17,93,63,36,30.26,30.18,17,7,0,0.00
2013-12-28,49,41,27,37,30,-100,80,68,57,30.22,30.01,19,11,0,0.00
2013-12-29,53,44,40,53,41,32,100,87,63,30.01,29.26,19,9,0,0.00
2013-12-30,45,36,22,42,28,8,100,73,46,30.09,29.50,16,10,0,0.00
2013-12-31,32,25,18,19,11,5,69,57,37,30.15,30.00,17,7,0,0.00
2014-1-1,33,28,22,20,13,9,75,55,40,30.35,30.16,16,7,0,0.00
2014-1-2,33,30,20,31,26,17,94,84,59,30.23,29.58,19,13,0,0.00